* Astronomy

Members Login
Username 
 
Password 
    Remember Me  
Post Info TOPIC: Asteroid 2011 CG66


L

Posts: 131433
Date:
Asteroid 2011 CG66
Permalink  
 


Orbital elements:
2011 CG66 Earth MOID = 0.0009 AU
Epoch 2011 Feb. 8.0 TT = JDT 2455600.5 MPC
M 81.96897 (2000.0) P Q
n 1.02329460 Peri. 245.69652 +0.95554144 -0.29231521
a 0.9752941 Node 131.27560 +0.28572431 +0.88560885
e 0.3717583 Incl. 2.94645 +0.07281607 +0.36089996
P 0.96 H 25.9 G 0.15
From 10 observations 2011 Feb. 13.

MPEC 2011 - C95


__________________
Page 1 of 1  sorted by
 
Quick Reply

Please log in to post quick replies.



Create your own FREE Forum
Report Abuse
Powered by ActiveBoard